Starlink 34914

operational
NORAD ID: 65203 Int'l Des: 2025-176 Owner: SPXS Country: US Constellation: starlink
LEOCIRCULAR

Über Starlink 34914

Beschreibung wird geladen...

Live-Position

3D-Globus wird geladen...

Nächste Überflüge

Höhenverlauf

Altitude vs Time

uPlot chart will show altitude changes over time

Zweizeiliger Elementsatz

1 65203U 25176F 25340.95236135 .00012826 00000-0 44441-3 0 9994
2 65203 53.1580 223.3669 0001178 63.5811 296.5311 15.30200423 18929
Epoch: 6. Dez. 2025 • Age: 23 hours

Aktueller Status

Höhe 489.6 km
Geschwindigkeit 7.62 km/s
Subsatellitenpunkt -42.06°S, 127.84°E
Startdatum 14. Aug. 2025
Alter 0.3 years
Typ internet

Technische Details

Klassifizierung Payload
Masse 575.00 kg
Trockenmasse 530.00 kg
Gesamtmasse 575.00 kg
Länge 0.30 m
Durchmesser 4.10 m
Spannweite 29.00 m
Form Box + pan
Hersteller SPXS
Bus-Typ Starlink V2MO
Phasenstatus In Orbit
Besitzer/Staat SPXS/US

Große Konstellationen

Loading constellations...